When you browse on this site, cookies collect data to enhance your experience and personalize the content and advertising you see.
Visit our Privacy Policy to learn more. By continuing to use the site, you agree to this use of cookies and data.
  • In United Kingdom
  • List of Countries
  • For 7 days
  • Water Temperature
  • Satellite Maps
  • Weather Map
  • Weather Widgets
  • user-avatar
    Login

    Hourly Weather Vasylivka Persha

    Today, 25 June, Tuesday

    Time Temperature Precipitation Wind Pressure Humidity
    00:00 +24°C° 0.6 mm 3 mps 754 mmHg 80%
    01:00 +24°C° 0.6 mm 3 mps 754 mmHg 82%
    02:00 +24°C° 0 mm 3 mps 754 mmHg 78%
    03:00 +23°C° 0 mm 4 mps 754 mmHg 80%
    04:00 +22°C° 0 mm 4 mps 754 mmHg 83%
    05:00 +22°C° 0 mm 5 mps 754 mmHg 85%
    06:00 +23°C° 0 mm 6 mps 755 mmHg 82%
    07:00 +24°C° 0 mm 6 mps 755 mmHg 79%
    08:00 +26°C° 0 mm 7 mps 755 mmHg 77%
    09:00 +27°C° 0 mm 7 mps 755 mmHg 73%
    10:00 +27°C° 0 mm 7 mps 756 mmHg 69%
    11:00 +28°C° 0 mm 7 mps 756 mmHg 65%
    12:00 +28°C° 0.2 mm 7 mps 756 mmHg 63%
    13:00 +29°C° 0.2 mm 7 mps 756 mmHg 62%
    14:00 +29°C° 0.2 mm 7 mps 757 mmHg 60%
    15:00 +28°C° 0.1 mm 7 mps 757 mmHg 60%
    16:00 +28°C° 0.1 mm 7 mps 757 mmHg 60%
    17:00 +27°C° 0.1 mm 6 mps 757 mmHg 59%
    18:00 +24°C° 0 mm 6 mps 757 mmHg 60%
    19:00 +23°C° 0 mm 6 mps 758 mmHg 61%
    20:00 +21°C° 0 mm 5 mps 758 mmHg 62%
    21:00 +20°C° 0 mm 5 mps 758 mmHg 65%
    22:00 +19°C° 0 mm 5 mps 758 mmHg 69%
    23:00 +18°C° 0 mm 4 mps 758 mmHg 72%

    Tomorrow, 26 June, Wednesday

    Time Temperature Precipitation Wind Pressure Humidity
    00:00 +17°C° 0 mm 4 mps 759 mmHg 75%
    01:00 +17°C° 0 mm 4 mps 759 mmHg 77%
    02:00 +15°C° 0 mm 4 mps 760 mmHg 80%
    03:00 +15°C° 0 mm 4 mps 760 mmHg 79%
    04:00 +15°C° 0 mm 4 mps 759 mmHg 79%
    05:00 +15°C° 0 mm 4 mps 759 mmHg 79%
    06:00 +18°C° 0 mm 4 mps 759 mmHg 72%
    07:00 +20°C° 0 mm 4 mps 760 mmHg 65%
    08:00 +22°C° 0 mm 5 mps 760 mmHg 59%
    09:00 +23°C° 0 mm 5 mps 760 mmHg 55%
    10:00 +25°C° 0 mm 5 mps 759 mmHg 52%
    11:00 +26°C° 0 mm 5 mps 759 mmHg 48%
    12:00 +26°C° 0 mm 5 mps 759 mmHg 47%
    13:00 +27°C° 0 mm 4 mps 759 mmHg 45%
    14:00 +27°C° 0 mm 4 mps 759 mmHg 44%
    15:00 +27°C° 0 mm 4 mps 758 mmHg 47%
    16:00 +26°C° 0 mm 4 mps 758 mmHg 49%
    17:00 +25°C° 0 mm 4 mps 757 mmHg 52%
    18:00 +23°C° 0 mm 4 mps 757 mmHg 58%
    19:00 +21°C° 0 mm 3 mps 757 mmHg 63%
    20:00 +19°C° 0 mm 3 mps 757 mmHg 69%
    21:00 +18°C° 0 mm 3 mps 757 mmHg 69%
    22:00 +18°C° 0 mm 2 mps 757 mmHg 70%
    23:00 +17°C° 0 mm 2 mps 757 mmHg 70%

    Day after tomorrow, 27 June, Thursday

    Time Temperature Precipitation Wind Pressure Humidity
    00:00 +16°C° 0 mm 2 mps 756 mmHg 73%
    01:00 +16°C° 0 mm 1 mps 756 mmHg 76%
    02:00 +15°C° 0 mm 1 mps 756 mmHg 79%
    03:00 +16°C° 0 mm 1 mps 755 mmHg 78%
    04:00 +16°C° 0 mm 0 mps 755 mmHg 77%
    05:00 +16°C° 0 mm 0 mps 754 mmHg 77%
    06:00 +20°C° 0 mm 1 mps 754 mmHg 70%
    07:00 +22°C° 0 mm 1 mps 754 mmHg 64%
    08:00 +24°C° 0 mm 2 mps 753 mmHg 58%
    09:00 +25°C° 0 mm 2 mps 753 mmHg 53%
    10:00 +26°C° 0 mm 3 mps 752 mmHg 48%
    11:00 +27°C° 0 mm 3 mps 751 mmHg 43%
    12:00 +28°C° 0 mm 4 mps 750 mmHg 42%
    13:00 +28°C° 0 mm 4 mps 750 mmHg 40%
    14:00 +29°C° 0 mm 4 mps 749 mmHg 39%
    15:00 +29°C° 0 mm 4 mps 748 mmHg 42%
    16:00 +28°C° 0 mm 4 mps 747 mmHg 44%
    17:00 +28°C° 0 mm 4 mps 747 mmHg 47%
    18:00 +26°C° 0 mm 4 mps 746 mmHg 51%
    19:00 +23°C° 0 mm 4 mps 745 mmHg 55%
    20:00 +21°C° 0 mm 4 mps 745 mmHg 59%
    21:00 +21°C° 0 mm 4 mps 744 mmHg 58%
    22:00 +20°C° 0 mm 4 mps 744 mmHg 57%
    23:00 +20°C° 0 mm 5 mps 743 mmHg 56%

    28 June, Friday

    Time Temperature Precipitation Wind Pressure Humidity
    00:00 +20°C° 0.4 mm 5 mps 743 mmHg 62%
    01:00 +19°C° 0.4 mm 5 mps 742 mmHg 68%
    02:00 +19°C° 0.4 mm 5 mps 742 mmHg 74%
    03:00 +19°C° 0.3 mm 5 mps 741 mmHg 81%
    04:00 +19°C° 0.3 mm 5 mps 741 mmHg 87%
    05:00 +20°C° 0.3 mm 5 mps 741 mmHg 94%
    06:00 +20°C° 0.1 mm 5 mps 741 mmHg 89%
    07:00 +20°C° 0.1 mm 6 mps 741 mmHg 85%
    08:00 +20°C° 0.1 mm 6 mps 741 mmHg 80%
    09:00 +21°C° 0 mm 6 mps 741 mmHg 72%
    10:00 +22°C° 0 mm 7 mps 741 mmHg 63%
    11:00 +23°C° 0 mm 7 mps 742 mmHg 55%
    12:00 +24°C° 0 mm 7 mps 742 mmHg 53%
    13:00 +24°C° 0 mm 7 mps 742 mmHg 51%
    14:00 +24°C° 0 mm 7 mps 742 mmHg 50%
    15:00 +23°C° 0.1 mm 6 mps 742 mmHg 52%
    16:00 +22°C° 0.1 mm 6 mps 742 mmHg 55%
    17:00 +22°C° 0.1 mm 6 mps 742 mmHg 58%
    18:00 +20°C° 0 mm 5 mps 743 mmHg 64%
    19:00 +18°C° 0 mm 4 mps 743 mmHg 70%
    20:00 +15°C° 0 mm 4 mps 743 mmHg 77%
    21:00 +14°C° 0 mm 4 mps 743 mmHg 79%
    22:00 +14°C° 0 mm 4 mps 744 mmHg 82%
    23:00 +13°C° 0 mm 3 mps 744 mmHg 84%

    29 June, Saturday

    Time Temperature Precipitation Wind Pressure Humidity
    00:00 +13°C° 0 mm 4 mps 744 mmHg 86%
    01:00 +12°C° 0 mm 4 mps 744 mmHg 87%
    02:00 +12°C° 0 mm 4 mps 743 mmHg 89%
    03:00 +12°C° 0 mm 4 mps 744 mmHg 88%
    04:00 +13°C° 0 mm 4 mps 744 mmHg 88%
    05:00 +13°C° 0 mm 5 mps 744 mmHg 87%
    06:00 +14°C° 0 mm 5 mps 744 mmHg 82%
    07:00 +15°C° 0 mm 5 mps 744 mmHg 77%
    08:00 +16°C° 0 mm 6 mps 744 mmHg 71%
    09:00 +16°C° 0 mm 6 mps 745 mmHg 70%
    10:00 +17°C° 0 mm 6 mps 745 mmHg 68%
    11:00 +17°C° 0 mm 6 mps 745 mmHg 67%
    12:00 +17°C° 0 mm 6 mps 745 mmHg 65%
    13:00 +17°C° 0 mm 6 mps 745 mmHg 63%
    14:00 +17°C° 0 mm 6 mps 745 mmHg 61%
    15:00 +17°C° 0 mm 6 mps 746 mmHg 62%
    16:00 +16°C° 0 mm 6 mps 746 mmHg 63%
    17:00 +16°C° 0 mm 6 mps 746 mmHg 64%
    18:00 +14°C° 0 mm 6 mps 747 mmHg 68%
    19:00 +13°C° 0 mm 5 mps 747 mmHg 72%
    20:00 +11°C° 0 mm 4 mps 747 mmHg 76%
    21:00 +11°C° 0 mm 3 mps 747 mmHg 78%
    22:00 +10°C° 0 mm 3 mps 747 mmHg 81%
    23:00 +9°C° 0 mm 3 mps 747 mmHg 83%

    30 June, Sunday

    Time Temperature Precipitation Wind Pressure Humidity
    00:00 +9°C° 0 mm 3 mps 747 mmHg 84%
    01:00 +9°C° 0 mm 3 mps 748 mmHg 84%
    02:00 +9°C° 0 mm 3 mps 748 mmHg 84%
    03:00 +9°C° 0 mm 3 mps 748 mmHg 84%
    04:00 +10°C° 0 mm 3 mps 748 mmHg 83%
    05:00 +10°C° 0 mm 3 mps 748 mmHg 82%
    06:00 +12°C° 0 mm 3 mps 748 mmHg 75%
    07:00 +14°C° 0 mm 4 mps 748 mmHg 67%
    08:00 +17°C° 0 mm 4 mps 748 mmHg 60%
    09:00 +18°C° 0.1 mm 4 mps 749 mmHg 55%
    10:00 +19°C° 0.1 mm 4 mps 749 mmHg 49%
    11:00 +20°C° 0.1 mm 5 mps 749 mmHg 44%
    12:00 +20°C° 0 mm 5 mps 749 mmHg 45%
    13:00 +20°C° 0 mm 5 mps 749 mmHg 47%
    14:00 +20°C° 0 mm 5 mps 749 mmHg 48%
    15:00 +20°C° 0 mm 5 mps 749 mmHg 49%
    16:00 +19°C° 0 mm 4 mps 749 mmHg 50%
    17:00 +19°C° 0 mm 4 mps 749 mmHg 52%
    18:00 +18°C° 0 mm 3 mps 750 mmHg 57%
    19:00 +16°C° 0 mm 3 mps 750 mmHg 62%
    20:00 +15°C° 0 mm 2 mps 750 mmHg 68%
    21:00 +14°C° 0 mm 2 mps 750 mmHg 70%
    22:00 +13°C° 0 mm 2 mps 751 mmHg 72%
    23:00 +12°C° 0 mm 2 mps 751 mmHg 74%
    Show more